Temperature
20 20 20 20 17 14 16 15 14 14 13 13 12 12 10 10 11 10 8 8 8 8 8 8 7 7 7 7 7 6 6 5 5 5 5 4 4 4 4 4 4 4 4 4 4 4 4 5 5
20 20 21 20 16 15 15 15 14 13 13 12 12 11 9 8 9 9 8 8 8 8 8 8 8 7 7 7 7 6 6 5 5 4 4 4 4 4 3 3 3 3 3 3 3 3 3 3 4
20 20 20 16 15 15 15 13 12 13 13 13 11 10 9 8 9 8 8 8 8 8 8 8 8 8 7 7 7 6 6 5 5 4 4 4 3 3 3 3 3 2 2 2 2 2 2 2 3
21 21 20 15 16 15 14 11 12 13 13 13 11 9 8 9 9 9 9 8 8 8 8 8 8 8 8 7 7 6 6 5 4 4 3 3 3 3 3 2 2 2 2 2 1 1 1 1 1
21 20 15 14 15 13 12 13 13 13 13 12 11 8 8 9 8 8 8 8 8 8 8 8 8 8 7 7 7 6 5 4 4 3 3 3 3 2 2 2 2 1 1 1 1 1 1 1 1
21 18 15 14 14 13 13 14 13 13 12 12 11 9 8 8 8 8 8 8 8 8 8 8 8 7 7 7 7 6 5 5 4 4 3 4 3 3 2 2 2 1 1 1 1 1 1 1 1
20 15 14 13 13 13 13 14 14 13 12 12 12 9 7 8 8 8 8 8 8 8 8 8 7 7 7 7 6 6 5 5 5 4 4 4 4 4 3 3 2 2 2 1 1 1 1 1 1
20 14 14 13 13 13 15 14 14 14 13 13 12 11 9 10 8 7 7 7 7 7 7 7 7 7 7 6 6 6 5 5 5 4 4 4 4 4 3 3 3 2 2 2 1 1 1 1 1
20 15 14 13 13 14 14 14 13 14 13 12 12 12 12 11 9 7 7 7 7 7 7 7 6 6 6 6 6 6 5 5 5 4 4 4 3 3 3 3 3 2 2 1 1 0 0 0 0
19 14 16 15 14 13 14 14 13 13 12 12 12 12 12 11 10 9 8 8 7 7 7 7 6 6 6 6 6 5 5 5 4 4 4 3 3 3 3 2 2 1 1 1 0 -0 -1 -1 -1
16 14 15 14 15 14 14 14 14 12 10 12 13 13 12 11 10 9 9 8 8 7 7 6 6 6 6 6 5 5 5 4 4 4 3 3 3 2 2 1 1 0 -0 -1 -1 -2 -2 -3 -3
14 13 14 14 14 14 14 14 13 13 14 14 14 14 13 12 11 10 10 8 7 7 6 6 6 6 6 5 5 5 5 4 4 3 3 2 2 2 1 0 -0 -1 -2 -3 -3 -4 -4 -4 -5
13 13 14 14 15 15 14 13 13 13 14 13 13 13 12 12 12 11 9 8 7 7 6 6 6 6 6 5 5 5 4 4 3 3 2 2 1 1 -0 -1 -2 -3 -3 -4 -5 -5 -5 -5 -6
13 13 13 14 14 14 13 13 13 14 14 13 13 13 13 12 12 10 9 8 8 7 7 6 6 6 6 5 5 4 4 3 3 2 2 1 0 -0 -1 -2 -2 -3 -4 -5 -5 -6 -6 -6 -6
14 12 13 13 13 13 13 12 11 14 14 13 13 13 12 12 11 11 10 9 9 8 7 7 6 6 6 5 5 4 4 3 3 2 1 0 -0 -1 -2 -2 -3 -4 -4 -5 -5 -6 -6 -7 -7
14 13 13 13 12 12 12 12 13 14 13 12 12 12 12 12 11 11 10 9 8 8 7 7 7 6 6 5 4 4 4 3 2 1 1 -0 -1 -1 -2 -3 -3 -4 -4 -5 -6 -6 -7 -7 -7
14 14 14 14 12 11 10 11 12 13 12 12 12 12 12 12 11 11 10 9 8 8 7 7 7 6 5 5 4 4 3 3 2 1 1 -0 -1 -2 -2 -3 -3 -4 -5 -5 -6 -7 -8 -8 -8
16 14 15 14 12 10 9 10 11 12 11 12 12 12 12 12 13 12 11 9 9 8 7 7 7 6 5 5 4 4 3 2 2 1 0 -0 -1 -2 -2 -3 -3 -4 -5 -6 -7 -7 -8 -8 -9
16 16 16 15 13 11 10 11 12 13 10 10 11 12 12 13 14 12 11 10 9 8 8 7 7 6 5 5 4 4 3 2 1 1 0 -0 -1 -2 -3 -3 -4 -5 -5 -6 -7 -8 -9 -9 -9
16 16 16 15 13 12 11 11 12 12 10 11 11 12 13 14 13 13 12 10 10 9 9 8 7 6 6 5 4 4 3 2 2 1 0 -0 -1 -2 -3 -3 -4 -5 -6 -7 -8 -9 -9 -9 -10
16 16 15 15 14 13 12 12 13 13 12 12 13 14 15 15 15 14 13 12 11 10 10 9 8 7 6 5 4 3 3 2 2 1 0 -1 -1 -2 -3 -4 -4 -5 -6 -7 -8 -9 -9 -10 -10
15 15 15 15 13 11 13 12 13 13 12 11 13 14 15 16 15 15 14 13 13 12 11 10 8 7 6 5 4 3 3 2 2 1 0 -1 -1 -2 -3 -4 -5 -6 -7 -8 -8 -9 -10 -10 -11
15 15 14 14 13 11 11 12 13 13 12 12 13 16 18 18 17 16 16 15 14 13 11 10 9 7 6 5 4 3 3 2 1 1 0 -1 -1 -2 -3 -4 -5 -6 -7 -8 -9 -9 -10 -10 -11
14 14 13 10 10 11 11 11 12 11 12 14 14 18 20 19 18 17 16 15 14 13 12 10 9 7 6 5 4 3 3 2 1 1 -0 -1 -1 -2 -3 -4 -5 -6 -7 -8 -9 -9 -10 -10 -11
14 13 13 13 11 12 12 12 13 13 12 13 16 20 20 20 19 18 17 15 15 14 12 11 9 8 6 5 4 3 3 2 1 1 -0 -1 -1 -2 -3 -4 -5 -6 -7 -8 -9 -9 -10 -10 -11
12 13 13 14 12 12 13 12 14 14 14 16 18 20 20 20 19 18 17 16 15 14 13 11 10 8 7 5 4 3 2 2 1 0 -0 -1 -2 -2 -3 -4 -5 -6 -7 -8 -9 -9 -9 -10 -10
14 12 11 11 12 11 11 11 12 14 14 14 16 17 19 19 19 18 18 16 15 14 13 12 11 9 7 5 4 3 2 2 1 0 -1 -1 -2 -3 -3 -4 -5 -6 -7 -8 -9 -9 -9 -9 -10
13 12 10 11 12 11 11 11 13 15 14 13 12 15 19 19 19 18 17 17 16 14 13 11 10 8 7 5 4 3 2 2 1 -0 -1 -1 -2 -3 -4 -4 -5 -6 -7 -8 -8 -9 -9 -9 -9
11 12 11 10 10 10 11 13 13 14 14 13 14 17 19 20 19 19 18 17 16 14 13 11 10 8 6 5 4 3 2 1 1 -0 -1 -2 -2 -3 -4 -4 -5 -6 -7 -8 -8 -9 -9 -9 -9
11 11 10 11 11 9 8 13 14 12 12 13 15 18 19 20 19 18 18 17 16 14 13 12 10 8 6 5 3 3 2 1 0 -0 -1 -2 -2 -3 -4 -4 -5 -6 -6 -7 -8 -8 -8 -9 -9
Wind_Speed
3 5 4 4 6 6 3 3 5 5 3 2 4 8 8 5 3 5 6 9 14 12 8 4 7 8 9 10 11 12 13 13 14 15 16 17 17 18 18 19 20 21 22 23 23 24 25 26 26
3 4 5 5 5 3 3 4 6 4 7 7 6 6 6 3 3 8 6 10 16 13 9 4 8 8 8 9 10 11 12 13 14 15 16 16 17 17 18 19 20 21 21 22 23 23 24 25 26
1 3 5 5 5 5 7 5 7 4 5 5 5 5 5 7 7 8 7 15 17 13 9 5 8 8 8 9 9 10 11 12 13 14 15 16 16 17 18 19 20 20 21 22 22 23 24 25 25
4 5 6 6 3 2 4 6 7 8 4 5 6 5 3 2 8 8 11 17 16 13 9 6 8 7 8 8 8 9 10 11 12 13 15 15 16 17 17 18 19 20 21 21 22 23 23 24 25
4 5 6 5 2 3 1 7 8 7 7 4 6 6 2 1 6 10 13 16 14 13 10 7 8 7 6 6 7 7 8 10 11 12 14 15 16 16 17 18 19 20 21 21 22 23 24 24 24
5 5 5 4 2 2 3 6 6 5 6 6 8 8 5 3 9 10 12 14 17 15 11 6 7 6 5 5 5 6 7 9 10 12 13 15 16 16 17 18 19 20 21 22 22 23 24 24 24
5 5 5 8 6 5 6 6 8 7 7 8 10 8 4 6 8 10 12 15 16 15 12 9 8 6 4 3 3 4 6 8 9 11 12 14 16 16 17 18 20 21 21 22 22 23 23 24 24
5 6 6 7 7 7 7 6 5 8 6 7 10 9 8 10 10 9 9 9 11 13 13 11 9 6 4 3 3 4 5 6 8 9 11 12 14 15 16 19 20 21 21 21 22 23 23 23 23
4 5 5 9 9 7 8 6 3 2 6 5 4 6 7 15 13 10 7 6 7 8 11 13 10 7 4 3 2 3 3 5 6 7 8 9 12 14 15 18 19 20 20 20 21 22 23 23 22
5 5 8 5 6 9 9 8 9 5 4 4 0 2 8 17 17 15 12 11 10 9 8 12 12 10 6 3 2 1 1 2 4 4 5 7 10 13 14 17 18 19 19 19 20 22 21 21 20
5 6 4 1 2 8 9 8 8 10 9 11 10 9 14 16 16 17 15 13 11 11 9 11 14 12 9 5 3 2 2 1 2 3 3 5 8 11 13 15 16 18 17 17 18 19 19 19 19
6 3 2 1 2 7 10 9 6 10 11 9 12 17 19 19 20 19 17 12 11 10 10 11 16 14 11 8 5 4 4 3 1 0 1 3 5 7 9 10 13 14 14 14 15 15 17 18 18
4 2 2 3 5 6 8 7 6 9 9 4 11 17 20 21 18 15 13 12 12 13 12 9 16 15 13 9 7 6 5 5 3 2 1 1 2 3 5 6 9 10 11 11 12 13 14 15 15
4 4 3 3 4 2 4 4 5 10 7 9 14 17 19 20 18 14 12 13 15 15 14 10 14 16 14 11 9 7 7 6 5 5 4 4 2 1 3 5 7 9 11 11 12 13 13 12 12
5 5 2 2 0 0 2 7 10 8 10 11 13 15 17 17 16 17 14 14 15 15 14 13 14 16 14 12 10 8 7 7 7 7 7 6 5 5 5 5 7 10 11 11 12 13 10 10 12
4 3 2 5 6 3 5 10 10 8 12 12 13 13 15 17 16 16 14 13 15 14 15 14 14 14 14 13 11 8 7 7 7 8 8 9 8 7 6 6 8 10 10 10 9 7 4 6 6
1 2 5 4 7 6 7 11 7 7 12 13 13 14 15 15 16 16 14 15 16 17 17 15 11 12 13 13 11 8 7 7 7 8 9 10 9 9 8 8 9 10 9 9 9 6 4 7 8
5 5 6 7 6 8 8 14 12 7 12 14 13 13 15 18 21 16 15 15 16 16 16 15 13 11 13 11 8 5 4 6 7 8 10 11 10 10 9 9 9 9 7 6 5 6 5 6 7
4 5 6 6 5 8 11 17 18 10 12 15 14 14 17 21 17 13 14 15 15 15 16 17 14 12 9 5 4 3 3 3 5 8 11 11 11 10 10 9 8 8 5 5 6 5 6 5 5
3 4 5 4 3 6 8 14 14 10 11 14 16 18 19 17 13 14 14 16 18 19 19 17 17 15 12 7 5 4 4 3 5 7 8 10 10 10 8 8 8 8 5 6 6 5 4 5 5
3 4 4 4 3 4 6 11 9 6 6 9 11 13 13 18 18 15 17 19 19 21 21 20 18 16 13 9 5 3 2 1 2 3 4 8 9 10 10 9 9 8 6 5 7 6 6 6 5
4 2 1 1 2 5 2 6 9 7 7 9 13 14 16 17 16 15 17 18 21 22 19 17 17 15 13 11 9 8 6 6 6 4 4 7 9 9 9 10 9 9 8 6 7 6 5 6 7
5 2 1 0 1 5 4 4 11 4 8 13 14 16 18 17 16 16 18 21 20 18 17 16 16 15 14 13 12 9 8 6 4 4 5 5 7 9 10 10 10 9 8 8 8 7 7 6 7
4 4 4 5 4 5 7 8 9 7 10 10 11 13 16 16 15 15 13 13 13 13 15 15 17 16 15 14 12 12 11 9 7 7 6 5 4 6 10 10 10 11 10 9 9 8 8 8 8
4 4 4 4 2 7 4 6 12 12 11 12 13 13 14 13 13 13 13 14 15 17 18 17 18 17 16 15 13 13 12 11 10 9 8 7 5 5 7 10 10 10 12 13 12 8 9 8 9
6 7 6 5 6 6 5 8 11 11 10 11 12 11 10 11 11 13 14 15 16 18 19 19 20 17 17 16 14 12 11 9 8 9 7 7 6 6 9 10 11 12 13 13 11 7 9 8 9
5 6 7 5 4 6 8 9 12 8 8 8 10 9 12 12 12 13 12 13 15 18 20 21 20 17 17 16 13 12 11 10 9 9 8 6 6 7 10 10 10 11 12 12 10 8 10 9 10
3 5 5 5 4 7 8 8 7 9 10 11 10 12 14 12 11 12 11 14 15 16 16 16 18 18 15 15 14 12 11 11 9 8 9 8 8 8 7 7 8 8 9 10 8 9 10 11 12
6 5 6 5 4 6 6 9 8 10 10 13 16 15 14 14 14 14 13 13 12 11 14 16 16 15 14 15 13 11 11 10 9 9 9 9 7 7 8 8 8 8 9 8 9 11 11 12 13
8 9 9 6 7 6 5 11 9 11 11 11 14 13 12 12 11 11 11 10 11 14 15 17 17 16 16 14 13 12 10 10 9 9 9 8 8 7 7 7 8 9 9 9 10 13 13 13 15
Wind_Direction
82 103 77 60 59 56 105 154 148 122 99 69 83 99 106 111 148 158 156 141 128 114 105 88 98 85 74 64 56 49 43 39 35 31 28 26 24 23 22 20 18 15 13 12 10 8 7 6 3
88 110 60 63 85 107 208 165 146 157 150 135 97 91 91 92 100 123 155 143 127 121 119 116 106 92 79 68 59 50 44 39 35 30 26 24 23 22 21 19 16 14 13 12 10 8 6 5 3
55 96 83 74 97 173 197 176 159 137 140 124 84 68 113 149 148 164 166 141 127 125 126 128 113 98 83 70 60 51 43 38 34 29 26 24 22 20 20 17 15 13 12 11 9 8 6 4 3
66 55 55 69 91 321 188 174 157 132 113 86 107 96 87 142 171 168 147 137 129 132 133 134 120 106 88 73 62 52 43 37 34 30 26 24 21 19 19 16 13 12 11 10 9 8 6 5 3
65 81 66 64 33 356 119 152 146 137 148 119 120 133 148 336 142 136 142 141 140 148 145 142 127 116 102 81 63 53 43 37 34 30 28 25 21 18 19 15 12 12 11 10 8 8 7 6 4
62 72 91 155 157 108 167 176 150 132 146 133 131 147 196 177 143 148 148 150 152 155 153 136 127 117 108 92 68 54 46 37 35 31 29 27 20 16 19 13 12 12 10 9 8 7 6 5 3
98 92 131 162 162 185 202 177 161 154 167 177 152 145 197 209 185 156 149 151 153 152 146 129 114 105 93 75 69 56 49 39 36 30 29 27 21 17 17 13 11 11 9 8 6 6 6 4 2
114 102 110 163 175 209 186 159 164 161 180 153 143 155 202 201 186 151 145 147 147 147 146 141 132 120 102 71 52 57 50 39 35 27 26 27 22 19 17 11 10 9 7 6 4 3 4 3 360
90 85 165 195 186 198 180 149 117 128 136 131 168 196 200 159 158 147 151 158 160 154 154 152 145 137 130 122 79 63 51 37 37 29 25 31 29 23 18 10 9 7 5 3 1 360 360 358 355
67 140 192 200 201 177 177 160 155 139 163 183 172 15 133 151 165 171 177 179 177 173 174 167 158 153 149 148 136 107 104 71 51 43 42 41 33 24 18 11 8 4 1 360 357 355 354 352 346
74 148 163 338 178 153 153 159 162 152 206 212 198 177 156 165 177 185 188 185 183 178 178 177 169 164 164 170 182 194 173 144 58 41 45 39 31 23 18 11 4 360 356 353 350 348 344 340 337
85 64 121 21 127 144 157 163 190 198 218 215 188 166 168 178 188 193 195 190 178 177 183 181 175 171 173 182 198 204 199 197 207 14 43 39 34 23 13 3 354 348 343 337 335 332 329 326 325
101 130 49 47 95 136 146 177 215 234 231 183 152 164 180 189 196 201 198 188 179 182 184 183 178 176 178 186 202 203 210 213 221 219 210 122 60 16 353 340 333 329 326 319 317 318 316 315 316
117 97 72 41 54 84 154 222 252 249 178 153 164 182 192 196 198 199 197 190 187 185 184 181 180 179 178 184 197 211 219 223 222 220 211 199 198 247 287 300 307 311 314 313 311 311 308 307 308
95 82 15 293 227 267 82 272 239 237 158 175 189 196 201 206 204 205 201 192 188 186 182 180 181 179 178 185 198 210 223 228 226 224 215 209 214 230 245 263 283 298 310 311 312 311 310 312 314
99 73 287 238 194 163 159 259 257 192 173 197 205 206 210 215 213 212 204 192 187 184 182 183 182 177 179 185 196 209 223 226 228 225 220 218 224 235 239 251 272 294 302 305 304 298 302 301 302
31 274 267 256 193 171 197 250 271 179 190 209 212 213 216 220 223 218 207 195 189 186 184 185 178 175 180 185 191 201 214 219 224 225 227 228 232 239 242 252 272 288 291 295 303 317 297 302 306
233 228 254 251 210 180 223 257 267 209 210 221 220 220 222 225 225 216 208 198 191 188 185 184 179 177 176 175 176 186 203 218 227 235 239 237 237 242 247 257 270 282 282 284 285 290 290 288 296
223 234 260 257 196 191 238 261 271 229 217 233 231 226 228 232 229 214 206 196 188 187 186 185 182 180 170 162 169 183 208 216 235 247 247 238 236 245 252 262 274 277 268 270 281 287 294 290 292
240 272 272 281 200 211 272 276 270 231 213 224 227 228 230 236 230 217 204 196 194 192 191 189 188 184 182 178 168 171 172 195 224 239 238 232 238 250 257 258 264 270 269 277 284 287 285 290 309
267 242 252 274 337 267 304 300 281 254 223 235 231 230 231 230 230 218 208 203 199 198 195 193 190 186 184 174 154 146 143 201 228 225 226 234 245 257 261 266 267 267 258 263 274 276 272 288 292
252 206 183 298 339 293 219 287 287 262 259 249 240 234 236 235 230 219 210 206 205 203 195 192 187 185 182 173 173 173 185 202 215 212 219 242 253 257 262 268 269 265 259 256 269 283 266 276 292
213 162 150 150 207 302 238 222 280 274 259 254 243 235 236 234 226 222 213 210 207 198 191 188 183 184 181 180 181 182 196 205 212 219 234 243 251 253 260 267 266 260 257 259 264 270 265 259 268
122 69 54 52 71 285 225 189 272 235 219 238 241 233 232 232 226 225 217 204 198 187 186 184 184 187 183 183 184 188 196 202 210 222 233 240 240 250 257 264 260 257 257 260 264 259 259 258 261
105 88 351 324 317 254 226 210 249 245 224 219 224 229 229 226 221 219 209 199 194 188 189 187 187 189 187 187 191 195 197 198 209 216 224 229 236 241 248 256 255 256 258 263 264 256 257 256 259
186 157 179 238 252 285 284 237 253 256 249 234 234 237 236 229 221 217 210 202 196 193 190 190 192 192 189 192 197 197 196 198 209 212 213 220 227 237 247 251 252 255 260 267 264 258 260 262 258
188 205 181 165 261 269 267 276 296 266 260 236 232 236 239 234 226 222 212 201 197 194 194 193 193 193 193 195 195 197 197 199 206 209 212 221 228 242 247 246 249 256 260 262 261 261 262 264 264
209 155 118 158 236 264 280 271 252 271 254 244 238 236 242 243 239 231 218 208 203 199 195 192 194 195 193 193 195 201 200 202 204 205 215 222 230 241 247 248 250 255 259 260 258 262 265 264 268
169 192 189 184 194 203 266 266 231 240 246 237 235 234 237 237 234 230 222 211 200 190 190 194 196 195 194 195 196 195 196 199 201 208 218 224 231 235 242 247 252 257 260 259 261 265 269 268 273
189 199 168 187 236 213 234 267 258 251 261 248 247 246 245 243 239 231 218 198 193 196 196 198 199 199 198 195 194 198 194 194 202 213 220 223 231 234 239 247 256 262 266 263 264 272 277 273 276
Height
1564 1565 1566 1568 1572 1585 1590 1589 1588 1590 1591 1592 1591 1591 1592 1596 1599 1606 1604 1603 1606 1609 1610 1610 1610 1610 1609 1607 1606 1604 1602 1600 1598 1596 1594 1592 1590 1588 1585 1582 1579 1577 1574 1571 1568 1566 1563 1560 1557
1565 1566 1568 1568 1578 1594 1592 1588 1589 1588 1590 1592 1592 1593 1593 1595 1596 1598 1599 1602 1605 1608 1608 1609 1609 1608 1607 1606 1604 1603 1601 1599 1598 1595 1593 1591 1589 1587 1584 1581 1578 1576 1573 1570 1568 1565 1562 1559 1556
1565 1566 1567 1570 1582 1590 1589 1588 1588 1589 1590 1591 1592 1593 1594 1594 1596 1597 1598 1601 1604 1606 1607 1607 1607 1606 1606 1605 1603 1602 1600 1598 1596 1594 1592 1590 1588 1586 1583 1580 1577 1575 1572 1569 1567 1564 1561 1558 1555
1566 1567 1568 1576 1584 1585 1583 1586 1586 1588 1590 1590 1591 1594 1595 1595 1596 1597 1598 1601 1603 1605 1606 1606 1605 1605 1604 1603 1602 1600 1599 1597 1595 1593 1591 1588 1586 1584 1581 1578 1576 1573 1571 1568 1565 1563 1560 1556 1553
1565 1566 1575 1586 1587 1586 1584 1585 1586 1587 1589 1590 1591 1592 1594 1595 1595 1596 1598 1600 1602 1603 1604 1604 1604 1603 1603 1602 1601 1599 1597 1595 1593 1591 1588 1586 1583 1581 1579 1576 1574 1571 1569 1566 1563 1560 1557 1554 1551
1564 1566 1583 1591 1588 1587 1586 1585 1586 1587 1588 1590 1591 1592 1592 1593 1594 1595 1597 1599 1601 1602 1602 1602 1602 1602 1601 1600 1599 1597 1595 1593 1591 1589 1586 1583 1581 1579 1576 1574 1572 1569 1567 1564 1561 1558 1555 1552 1548
1564 1570 1582 1588 1590 1588 1586 1585 1585 1586 1587 1588 1588 1590 1591 1591 1592 1594 1596 1597 1599 1600 1600 1600 1600 1600 1600 1599 1597 1595 1594 1591 1589 1587 1584 1582 1579 1577 1574 1572 1570 1567 1565 1562 1559 1556 1553 1549 1546
1564 1570 1582 1587 1587 1585 1582 1583 1583 1584 1585 1586 1587 1586 1586 1587 1590 1592 1594 1595 1596 1597 1598 1598 1598 1598 1598 1597 1595 1593 1592 1589 1587 1585 1582 1580 1577 1575 1573 1570 1568 1565 1563 1560 1557 1553 1550 1546 1543
1564 1573 1582 1583 1582 1579 1579 1581 1582 1583 1584 1584 1583 1583 1584 1585 1586 1588 1590 1591 1592 1593 1594 1595 1596 1596 1595 1594 1593 1591 1590 1588 1585 1583 1580 1578 1575 1573 1571 1568 1566 1563 1560 1557 1554 1550 1546 1543 1540
1563 1575 1574 1573 1573 1573 1575 1577 1579 1581 1582 1581 1580 1580 1580 1581 1582 1583 1584 1586 1587 1589 1591 1592 1593 1593 1593 1592 1590 1589 1587 1585 1583 1581 1578 1576 1573 1571 1568 1566 1563 1560 1557 1554 1550 1546 1543 1540 1536
1566 1571 1571 1571 1570 1570 1573 1576 1577 1578 1579 1575 1574 1575 1577 1578 1578 1579 1580 1582 1583 1586 1587 1589 1590 1591 1590 1589 1588 1586 1584 1582 1580 1578 1575 1573 1571 1568 1566 1563 1560 1556 1553 1549 1546 1542 1538 1535 1531
1569 1571 1570 1571 1570 1571 1573 1574 1576 1574 1571 1571 1572 1573 1573 1573 1574 1575 1576 1578 1580 1581 1583 1585 1587 1587 1587 1586 1585 1583 1581 1579 1577 1575 1572 1570 1567 1565 1562 1559 1555 1551 1547 1544 1540 1536 1533 1530 1526
1570 1571 1571 1571 1571 1572 1573 1573 1573 1569 1569 1569 1569 1569 1569 1570 1571 1572 1574 1576 1576 1577 1579 1581 1583 1584 1584 1583 1581 1580 1578 1576 1574 1571 1569 1566 1563 1561 1557 1554 1550 1546 1542 1538 1534 1531 1528 1524 1521
1571 1572 1572 1573 1573 1573 1574 1573 1572 1563 1565 1566 1565 1565 1566 1566 1567 1569 1570 1570 1571 1572 1575 1577 1578 1580 1580 1579 1578 1576 1574 1572 1570 1567 1565 1562 1559 1556 1553 1549 1545 1542 1538 1534 1530 1526 1523 1519 1516
1572 1574 1575 1574 1574 1574 1575 1574 1566 1560 1561 1561 1561 1561 1562 1562 1564 1564 1565 1566 1567 1569 1571 1572 1574 1575 1575 1575 1574 1572 1570 1568 1566 1563 1560 1557 1555 1551 1548 1545 1541 1538 1534 1530 1526 1522 1519 1515 1511
1573 1576 1578 1573 1573 1573 1578 1573 1557 1557 1558 1557 1557 1557 1558 1558 1559 1560 1562 1562 1563 1565 1566 1568 1569 1570 1570 1570 1569 1568 1566 1564 1562 1559 1556 1553 1550 1547 1544 1541 1537 1534 1530 1526 1522 1518 1514 1510 1506
1576 1579 1576 1571 1570 1572 1575 1568 1554 1554 1554 1553 1553 1553 1553 1554 1554 1555 1557 1558 1559 1560 1561 1562 1563 1564 1565 1565 1564 1563 1561 1559 1557 1554 1552 1549 1546 1543 1540 1537 1533 1529 1526 1522 1518 1514 1510 1505 1501
1574 1577 1572 1570 1567 1570 1571 1562 1552 1552 1551 1549 1548 1548 1548 1547 1547 1550 1552 1553 1554 1555 1556 1556 1557 1558 1559 1559 1559 1558 1556 1554 1552 1550 1547 1545 1542 1539 1536 1532 1529 1525 1521 1518 1514 1510 1506 1502 1498
1566 1568 1568 1564 1562 1566 1565 1557 1547 1546 1546 1544 1543 1543 1542 1540 1542 1545 1546 1547 1548 1548 1549 1549 1550 1551 1552 1553 1553 1552 1551 1549 1547 1545 1543 1540 1537 1534 1531 1528 1524 1521 1517 1513 1509 1505 1501 1498 1494
1564 1566 1566 1563 1562 1564 1562 1554 1540 1536 1536 1534 1534 1534 1534 1534 1536 1538 1539 1540 1540 1541 1541 1542 1543 1544 1546 1547 1548 1547 1546 1544 1542 1540 1538 1535 1533 1530 1527 1523 1520 1516 1513 1509 1505 1501 1497 1493 1491
1563 1565 1564 1563 1562 1562 1563 1553 1537 1530 1530 1529 1528 1527 1528 1528 1528 1530 1532 1532 1533 1532 1533 1534 1535 1537 1539 1541 1542 1541 1540 1538 1537 1535 1533 1530 1528 1525 1522 1518 1515 1511 1508 1504 1501 1497 1493 1489 1486
1565 1561 1561 1562 1567 1570 1565 1568 1540 1530 1528 1523 1521 1520 1519 1520 1521 1523 1524 1524 1524 1524 1526 1527 1529 1530 1532 1534 1534 1534 1534 1533 1532 1530 1528 1525 1523 1520 1517 1514 1510 1507 1503 1500 1496 1493 1489 1485 1481
1559 1559 1561 1563 1566 1571 1566 1568 1543 1530 1527 1518 1512 1512 1512 1513 1515 1515 1516 1516 1517 1519 1519 1520 1522 1523 1525 1526 1527 1528 1527 1527 1526 1524 1522 1520 1518 1515 1512 1509 1505 1502 1498 1495 1491 1488 1484 1480 1476
1558 1561 1564 1569 1573 1574 1561 1566 1548 1529 1517 1509 1504 1504 1505 1507 1508 1509 1510 1511 1511 1512 1512 1513 1514 1515 1517 1518 1520 1521 1521 1520 1519 1518 1516 1514 1512 1510 1507 1503 1500 1496 1493 1489 1486 1482 1478 1474 1471
1560 1568 1575 1572 1577 1568 1552 1554 1534 1509 1503 1499 1497 1497 1499 1501 1502 1503 1503 1503 1503 1503 1504 1505 1506 1507 1509 1511 1512 1514 1514 1514 1512 1511 1510 1508 1507 1504 1501 1498 1494 1491 1487 1483 1480 1476 1472 1468 1464
1562 1564 1574 1575 1575 1565 1549 1546 1518 1499 1495 1493 1493 1494 1495 1495 1496 1496 1496 1496 1496 1496 1497 1497 1498 1499 1501 1503 1505 1507 1507 1507 1506 1505 1503 1502 1500 1498 1495 1492 1488 1485 1481 1477 1474 1470 1465 1461 1457
1556 1561 1560 1569 1568 1570 1554 1536 1514 1494 1491 1489 1489 1490 1489 1490 1490 1490 1490 1490 1490 1490 1490 1490 1491 1492 1493 1496 1498 1499 1500 1500 1499 1498 1497 1496 1494 1492 1489 1485 1482 1478 1475 1471 1467 1463 1459 1455 1450
1552 1555 1565 1568 1570 1569 1554 1540 1520 1496 1492 1488 1486 1484 1484 1485 1485 1484 1484 1484 1483 1483 1484 1484 1484 1485 1487 1489 1490 1492 1493 1493 1492 1492 1491 1490 1488 1486 1483 1479 1476 1472 1469 1465 1461 1456 1452 1448 1443
1554 1556 1556 1562 1565 1567 1560 1529 1499 1492 1486 1484 1480 1478 1478 1479 1479 1478 1478 1478 1477 1477 1477 1476 1476 1477 1479 1480 1482 1484 1485 1486 1485 1485 1485 1483 1482 1480 1477 1473 1469 1466 1462 1458 1454 1450 1445 1441 1436
1546 1546 1552 1558 1555 1558 1558 1521 1488 1485 1481 1479 1476 1475 1475 1475 1474 1473 1472 1472 1471 1469 1469 1468 1468 1469 1470 1473 1475 1476 1478 1478 1478 1478 1478 1477 1475 1473 1470 1467 1463 1460 1456 1452 1447 1443 1439 1434 1429